Regional Weather Roundup
Issued by NWS

Home | Current Version | Previous Version | Graphics & Text | Print | Product List | Glossary On
Versions: 1 2 3 4 5 6 7 8 9 10 11 12 13 14 15 16 17 18 19 20 21 22 23 24 25 26 27 28 29 30 31 32 33 34 35 36 37 38 39 40 41 42 43 44 45 46 47 48 49 50
000
ASUS43 KIND 300959
RWRIN

WEATHER ROUNDUP FOR INDIANA
NATIONAL WEATHER SERVICE INDIANAPOLIS IN
600 AM EDT SUN AUG 30 2015

NOTE: "FAIR" INDICATES FEW OR NO CLOUDS BELOW 12,000 FEET WITH NO
SIGNIFICANT WEATHER AND/OR OBSTRUCTIONS TO VISIBILITY.

* - STATION DOES NOT REPORT WEATHER SUCH AS PRECIPITATION OR FOG.

+ - STATION NOT QUALITY CONTROLLED BY THE NATIONAL WEATHER SERVICE.
    USE DATA WITH CAUTION...ESPECIALLY DEWPOINT AND RELATIVE
    HUMIDITY OBSERVATIONS.

INZ001>003-010>013-019-020-301100-
NORTHWEST INDIANA

CITY           SKY/WX    TMP DP  RH WIND       PRES   REMARKS
GARY /AIRPORT/ CLOUDY    66  64  94 N6        30.03S FOG
KNOX *+        CLOUDY    64  64 100 CALM      30.02R
MONTICELLO +     N/A     65  65 100 CALM      30.02R FOG
RENSSELAER +   CLOUDY    66  66 100 CALM      30.03R FOG
VALPARAISO     CLOUDY    67  66  97 CALM      30.03R FOG

$$

LMZ046-743>745-301100-
SOUTHERN LAKE MICHIGAN

STATION/POSITION TIME  TEMP    WIND        PRES    WAVE
                       AIR SEA DIR/SP/G            HT
                 (UTC) (F)     (DEG/KT/KT) (MB)    (FT)
BURNS HARBOR     0900   67     310/  8/ 10 1016.9S
MICHIGAN CITY    0900   67     280/  6/  6   N/A
5NW MICH CITY    0900   68 71  340/  8/ 10   N/A     1

$$

INZ004-005-014>016-021>024-301100-
NORTH CENTRAL INDIANA

CITY           SKY/WX    TMP DP  RH WIND       PRES   REMARKS
GOSHEN         CLOUDY    66  64  93 CALM      30.03R FOG
PERU/GRISSOM   MOCLDY    67  66  97 S3        30.03R
SOUTH BEND     FOG       67  67 100 CALM      30.03R VSB 1/4

$$

INZ006>009-017-018-025>027-301100-
NORTHEAST INDIANA

CITY           SKY/WX    TMP DP  RH WIND       PRES   REMARKS
ANGOLA *+      CLOUDY    66  57  72 CALM      30.04R
FORT WAYNE     MOCLDY    67  65  93 CALM      30.05R

$$

INZ028-029-035-036-043>045-051>053-301100-
WEST CENTRAL INDIANA

CITY           SKY/WX    TMP DP  RH WIND       PRES   REMARKS
CRAWFORDSVL +  CLEAR     60  60 100 CALM      30.05R FOG
GREENCASTLE +  PTCLDY    64  61  88 CALM      30.06R FOG
LAFAYETTE      FOG       63  63 100 CALM      30.03R VSB 1/2
TERRE HAUTE    CLEAR     63  61  93 CALM      30.04S

$$

INZ030>032-037>040-046>048-054>057-064-065-301100-
CENTRAL INDIANA

CITY           SKY/WX    TMP DP  RH WIND       PRES   REMARKS
FRANKFORT +    FOG      N/A N/A N/A CALM      30.06S VSB 1/4
GREENWOOD *+   MOCLDY    70  64  83 CALM      30.06R
INDIANAPOLIS   NOT AVBL
-EAGLE CREEK   PTCLDY    69  67  93 CALM      30.04R
KOKOMO *+      CLEAR     64  61  88 CALM      30.04S
MT COMFORT *+  PTCLDY    68 N/A N/A S3        30.06R
SHELBYVILLE    CLOUDY    72  68  87 S5        30.05R

$$

INZ033-034-041-042-049-050-058-059-301100-
EAST CENTRAL INDIANA

CITY           SKY/WX    TMP DP  RH WIND       PRES   REMARKS
MUNCIE         PTCLDY    67  66  97 S5        30.06R

$$

INZ060-061-067>069-081>083-085>088-301100-
SOUTHWEST INDIANA

CITY           SKY/WX    TMP DP  RH WIND       PRES   REMARKS
EVANSVILLE     CLOUDY    73  69  87 CALM      30.05R
HUNTINGBURG *+ MOCLDY    70  64  83 S5        30.06R

$$

INZ062-063-066-070>080-084-089>092-301100-
SOUTH CENTRAL AND SOUTHEAST INDIANA

CITY           SKY/WX    TMP DP  RH WIND       PRES   REMARKS
BLOOMINGTON    MOCLDY    70  68  93 S5        30.05S
MADISON *+     MOCLDY    66  64  94 S3        30.10R
SEYMOUR +      CLOUDY    68  66  94 CALM      30.06R

$$



USA.gov is the U.S. government's official web portal to all federal, state and local government web resources and services.